Regional Weather Roundup
Issued by NWS Sterling, VA

Home | Current Version | Previous Version | Graphics & Text | Print | Product List | Glossary On
Versions: 1 2 3 4 5 6 7 8 9 10 11 12 13 14 15 16 17 18 19 20 21 22 23 24 25 26 27
000
ASUS41 KLWX 240010
RWRLWX

REGIONAL WEATHER ROUNDUP
NATIONAL WEATHER SERVICE BALTIMORE MD/WASHINGTON DC
800 PM EDT MON MAY 23 2016

Note: "FAIR" indicates few or no clouds below 12,000 feet
with no significant weather and/or obstructions to visibility.
 TC=TEMPERATURE CELSIUS

 * =Non NWS site. Station does not report precipitation (e.g. rain,
    snow, etc.), thunder, or fog.

DCZ001-MDZ009-015-VAZ040>042-051-053>054-240100-
WASHINGTON METRO

CITY           SKY/WX    TMP DP  RH WIND       PRES   REMARKS
WASHINGTON NAT CLOUDY    62  58  86 W8        29.95F
DULLES         MOCLDY    60  57  89 SE5       29.97R
ANDREWS AFB    CLOUDY    59  57  92 SE6       29.94F
FT BELVOIR     FAIR      60  57  92 VRB3      29.95F
QUANTICO       LGT RAIN  62  57  83 E7        29.97F
COLLEGE PARK*  MOCLDY    57  55  94 CALM      29.94R
LEESBURG*      FAIR      63  61  94 S8        29.96S
MANASSAS*      MOCLDY    61  61 100 CALM      29.97R

$$

MDZ006>007-011-014-240100-
BALTIMORE METRO

CITY           SKY/WX    TMP DP  RH WIND       PRES   REMARKS
BWI AIRPORT    CLOUDY    58  56  93 SW6       29.92S
MD SCIENCE CTR   N/A     60  56  86 MISG      29.92S
MARTIN STATE   MOCLDY    61  59  94 CALM      29.94R
ANNAPOLIS      PTCLDY    60  57  89 CALM      29.92F
FORT MEADE*    CLOUDY    55  54  94 CALM      29.95S

$$

MDZ012-015-019>023-240100-
MARYLAND EASTERN SHORE

CITY           SKY/WX    TMP DP  RH WIND       PRES   REMARKS
OCEAN CITY     CLOUDY    58  51  78 CALM      29.91S
SALISBURY      CLOUDY    61  52  72 CALM      29.91S
BAY BRIDGE AP* CLOUDY    61  54  77 W6        29.92F
CAMBRIDGE*     CLOUDY    61  55  82 NW9       29.93R
EASTON*        CLOUDY    61  61 100 CALM      29.96R

$$

MDZ017>025-240100-
SOUTHERN MARYLAND

CITY           SKY/WX    TMP DP  RH WIND       PRES   REMARKS
PATUXENT RIVER CLOUDY    61  54  77 NW10      29.92R
ST INIGOES     LGT RAIN  63  57  81 NW8       29.91S
LEONARDTOWN*   CLOUDY    59  54  82 W3        29.96R

$$

MDZ003>005-240100-
NORTH CENTRAL MARYLAND

CITY           SKY/WX    TMP DP  RH WIND       PRES   REMARKS
FREDERICK*     MOCLDY    64  57  77 S7        29.96F
HAGERSTOWN APT LGT RAIN  64  54  69 N9        29.95R
WESTMINSTER*   CLOUDY    63  54  72 CALM      29.94R

$$

MDZ501>502-240100-
WESTERN MARYLAND

CITY           SKY/WX    TMP DP  RH WIND       PRES   REMARKS
OAKLAND*       NOT AVBL
CUMBERLAND*    CLEAR     70  48  46 CALM      29.99R

$$

VAZ025>031-240100-
SHENANDOAH VALLEY

CITY           SKY/WX    TMP DP  RH WIND       PRES   REMARKS
WINCHESTER*    CLOUDY    63  52  67 E3        29.96R
FRONT ROYAL*   MOCLDY    64  50  59 CALM      29.96R
LURAY*         FAIR      68  52  56 NE5       29.96R
NEW MARKET*    CLOUDY    64  55  72 N3        29.95R
STAUNTON*      FAIR      65  57  75 CALM      29.99R
WAYNESBORO*    FAIR      63  50  63 W6        29.98S

$$

WVZ021-048>050-054>055-240100-
EASTERN WEST VIRGINIA PANHANDLE

CITY           SKY/WX    TMP DP  RH WIND       PRES   REMARKS
MARTINSBURG    CLOUDY    60  57  89 SE5       29.95R
PETERSBURG*    FAIR      63  57  81 CALM      29.99R

$$

VAZ036>039-050-240100-
CENTRAL FOOTHILLS

CITY           SKY/WX    TMP DP  RH WIND       PRES   REMARKS
CHARLOTTESVILL FAIR      66  53  63 E10G17    29.96R
CULPEPER*      MOCLDY    59  58  96 CALM      29.99R
ORANGE*        LGT RAIN  61  61 100 CALM      29.98R
GORDONSVILLE*  MOCLDY    60  58  96 NW5       29.96F
WARRENTON*     CLOUDY    60  55  84 CALM      29.96S

$$

VAZ055>057-240100-
NORTH AND CENTRAL PIEDMONT

CITY           SKY/WX    TMP DP  RH WIND       PRES   REMARKS
FREDERICKSBRG* RAIN      61  59  94 CALM      29.98R
STAFFORD*      CLOUDY    60  57  91 E6        30.02R

$$

NCZ024-NYZ072-PAZ021-071-VAZ022-071-240100-
OTHER REGIONAL OBSERVATIONS

CITY           SKY/WX    TMP DP  RH WIND       PRES   REMARKS
NEW YORK CITY  CLOUDY    63  47  55 CALM      29.91R
PHILADELPHIA   MOCLDY    62  56  80 NW7       29.90R
PITTSBURGH     PTCLDY    68  51  54 S8        29.97R
ROANOKE        MOCLDY    61  54  77 CALM      30.03R
RICHMOND       CLOUDY    65  54  67 W7        29.94R
RALEIGH        PTCLDY    63  52  67 NW3       30.00R

$$

ANZ530>537-240100-
MARINE OBSERVATIONS

STATION/POSITION TIME  TEMP    WIND        PRES
                       AIR SEA DIR/SP/G
                 (UTC) (F)     (DEG/KT/KT) (MB)
THOMAS PT LIGHT  0000   60 60  220/  5/  5 1014.8R
BALT KEY BRIDGE  2300                      1012.7F
COVE POINT       2300                      1013.6R
LEWISETTA        2300      62              1012.7R
SOLOMONS ISLAND  2300      62                N/A

$$





USA.gov is the U.S. government's official web portal to all federal, state and local government web resources and services.